Showing default

3CAT-4, 60236

Orbit data source: Space-Track

3CAT-4, 60236 is a payload satellite owned by UPC (ES) in LEO that was launched on Tue, 09 Jul 2024 UTC via an ARIANE 62 launch vehicle from the French Guiana (FRGUI). Payload-class satellites include a variety of spacecraft equipped with specific instruments for various scientific and technological missions. These include communications satellites like Starlink; space stations such as the ISS; scientific satellites like the Hubble; Earth observation satellites from companies like Planet Labs, Umbra, and HawkEye 360; GPS; miniature CubeSats for education and research; and military/defense satellites.

Loading next visibility...
Identifier
60236, 2024-128B
Orbit
LEO
Country
Flag of ESES / SPN
Related business
Manufacturer
UPC
Mission
Non-operational Amateur Technology
Bus & Motor
CUBESAT 1U, Unknown motor
Mass
1 kg wet, 1 kg dry
Launch date (UTC)
2024-07-09 (1 year ago)
Launch vehicle
ARIANE 62
Launch site
French Guiana (FRGUI)
Object type
Payload
Rocket body
Debris
Shape & HBR
Box + 1 Rod, 0.3 m
Radar Cross Section
0.015 m², Small (<0.1 m²)

Expand to show TLE details & history
Last TLE update: 10 hours ago

TLE from 10 hours ago
0 3CAT-4
1 60236U 24128B   25242.93683133  .00004314  00000-0  34521-3 0  9995
2 60236  61.9928 155.8316 0058106  75.6811 285.0721 15.00473279 62529
Epoch: 2025-08-30T22:29Z
TLE epoch observation values (Epoch: 2025-08-30T22:29:02.226Z)
Latitude
-0.00004°
Longitude
-160.79167°
Altitude
556.932 km
Speed
7.589 km/s
True Right ascension
10h 23m 19s
True Declination
0° 00' 00"
Sunlit
Object was in daylight at epoch
Visualization orbit readout
Latitude
Unknown
Longitude
Unknown
Altitude
Unknown
Speed
Unknown
Apparent Right ascension
Unknown
Apparent Declination
Unknown
Sunlit
N/A
Visualization observer readout
Local Sidereal Time
00:27:48
Azimuth
Unknown
Elevation
Unknown
Doppler factor
Unknown
Orbital elements
Apogee altitude
604.707 km
Perigee altitude
524.027 km
Semi-major axis
6,942.504 km
Eccentricity
0.00581
Inclination
61.9928°
RAAN
155.8316°
Arg. of periapsis
75.6811°
True anomaly
284.42796°
Mean anomaly
285.0721°
Eccentric anomaly
284.75015°
Mean motion
3.75205 °/min
Orbital period
95.95 mins
BSTAR
0.00034521
Loading maneuver chart data...
Computing Atmospheric mass density...
Loading historical data...
Loading historical data...
Loading historical data...
Loading historical data...
Loading historical data...
Loading historical data...
Loading historical data...

Documentation

Showing up to 5 results
|